CAPE
0 0 0 0 0 0 0 0 0 0 0 0 0 0 0 0 0 0 0 0 0 0 0 0 0 0 0 0 0 0 0 0 0 0 0 0 0 0 0 0 0 0 0 0 0
0 0 0 0 0 0 0 0 0 0 0 0 0 0 0 0 0 0 0 0 0 0 0 0 0 0 0 0 0 0 0 0 0 0 0 0 0 0 0 0 0 0 0 0 0
0 0 0 0 0 0 0 0 0 0 0 0 0 0 0 0 0 0 0 0 0 0 0 0 0 0 0 0 0 0 0 0 0 0 0 0 0 0 0 0 0 0 0 0 0
0 0 0 0 0 0 0 0 0 0 0 0 0 0 0 0 0 0 0 0 0 0 0 0 0 0 0 0 0 0 0 0 0 0 0 0 0 0 0 0 0 0 0 0 0
0 0 0 0 0 0 0 0 0 0 0 0 0 0 0 0 0 0 0 0 0 0 0 0 0 0 0 0 0 0 0 0 0 0 0 0 0 0 0 0 0 0 0 0 0
0 0 0 0 0 0 0 0 0 0 0 0 0 0 0 0 0 0 0 0 0 0 0 0 0 0 0 0 0 0 0 0 0 0 0 0 0 0 0 0 0 0 0 0 0
0 0 0 0 0 0 0 0 0 0 0 0 0 0 0 0 0 0 0 0 0 0 0 0 0 0 0 0 0 0 0 0 0 0 0 0 0 0 0 0 0 0 0 0 0
0 0 0 0 0 0 0 0 0 0 0 0 0 0 0 0 0 0 0 0 0 0 0 0 0 0 0 0 0 0 0 0 0 0 0 0 0 0 0 0 0 0 0 0 0
0 0 0 0 0 0 0 0 0 0 0 0 0 0 0 0 0 0 0 0 0 0 0 0 0 0 0 0 0 0 0 0 0 0 0 0 0 0 0 0 0 0 0 0 0
0 0 0 0 0 0 0 0 0 0 0 0 0 0 0 0 0 0 0 0 0 0 0 0 0 0 0 0 0 0 0 0 0 0 0 0 0 0 0 0 0 0 0 0 0
0 0 0 0 0 0 0 0 0 0 0 0 0 0 0 0 0 0 0 0 0 0 0 0 0 0 0 0 0 0 0 0 0 0 0 0 0 0 0 0 0 0 0 0 0
0 0 0 0 0 0 0 0 0 0 0 0 0 0 0 0 0 0 0 0 0 0 0 0 0 0 0 0 0 0 0 0 0 0 0 0 0 0 0 0 0 0 0 0 0
0 0 0 0 0 0 0 0 0 0 0 0 0 0 0 0 0 0 0 0 0 0 0 0 0 0 0 0 0 0 0 0 0 0 0 0 0 0 0 0 0 0 0 0 0
0 0 0 0 0 0 0 0 0 0 0 0 0 0 0 0 0 0 0 0 0 0 0 0 0 0 0 0 0 0 0 0 0 0 0 0 0 0 0 0 0 0 0 0 0
0 0 0 0 0 0 0 0 0 0 0 0 0 0 0 0 0 0 0 0 0 0 0 0 0 0 0 0 0 0 0 0 0 0 0 0 0 0 0 0 0 0 0 0 0
0 0 0 0 0 0 0 0 0 0 0 0 0 0 0 0 0 0 0 0 0 0 0 0 0 0 0 0 0 0 0 0 0 0 0 0 0 0 0 0 0 0 0 0 0
0 0 0 0 0 0 0 0 0 0 0 0 0 0 0 0 0 0 0 0 0 0 0 0 0 0 0 0 0 0 0 0 0 0 0 0 0 0 0 0 0 0 0 0 0
0 0 0 0 0 0 0 0 0 0 0 0 0 0 0 0 0 0 0 0 0 0 0 0 0 0 0 0 0 0 0 0 0 0 0 0 0 0 0 0 0 0 0 0 0
0 0 0 0 0 0 0 0 0 0 0 0 0 0 0 0 0 0 0 0 0 0 0 0 0 0 0 0 0 0 0 0 0 0 0 0 0 0 0 0 0 0 0 0 0
0 0 0 0 0 0 0 0 0 0 0 0 0 0 0 0 0 0 0 0 0 0 0 0 0 0 0 0 0 0 0 0 0 0 0 0 0 0 0 0 0 0 0 0 0
0 0 0 0 0 0 0 0 0 0 0 0 0 0 0 0 0 0 0 0 0 0 0 0 0 0 0 0 0 0 0 0 0 0 0 0 0 0 0 0 0 0 0 0 0
0 0 0 0 0 0 0 0 0 0 0 0 0 0 0 0 0 0 0 0 0 0 0 0 0 0 0 0 0 0 0 0 0 0 0 0 0 0 0 0 0 0 0 0 0
0 0 0 0 0 0 0 0 0 0 0 0 0 0 0 0 0 0 0 0 0 0 0 0 0 0 0 0 0 0 0 0 0 0 0 0 0 0 0 0 0 0 0 0 0
0 0 1 0 0 0 0 0 0 0 0 0 0 0 0 0 0 0 0 0 0 0 0 0 0 0 0 0 0 0 0 0 0 0 0 0 0 0 0 0 0 0 0 0 0
0 0 0 0 2 0 0 0 0 0 0 0 0 0 0 0 0 0 0 0 0 0 0 0 0 0 0 0 0 0 0 0 0 0 0 0 0 0 0 0 0 0 0 0 0
0 0 0 0 0 0 0 0 0 0 0 0 0 0 0 0 0 0 0 0 0 0 0 0 0 0 0 0 0 0 0 0 0 0 0 0 0 0 0 0 0 0 0 0 0
0 0 0 0 0 0 0 0 0 0 0 0 0 0 0 0 0 0 0 0 0 0 0 0 0 0 0 0 0 0 0 0 0 0 0 0 0 0 0 0 0 0 0 0 0
CIN
0 0 0 0 0 0 0 0 0 0 0 0 0 0 0 0 0 0 0 0 0 0 0 0 0 0 0 0 0 0 0 0 0 0 0 0 0 0 0 0 0 0 0 0 0
0 0 0 0 0 0 0 0 0 0 0 0 0 0 0 0 0 0 0 0 0 0 0 0 0 0 0 0 0 0 0 0 0 0 0 0 0 0 0 0 0 0 0 0 0
0 0 0 0 0 0 0 0 0 0 0 0 0 0 0 0 0 0 0 0 0 0 0 0 0 0 0 0 0 0 0 0 0 0 0 0 0 0 0 0 0 0 0 0 0
0 0 0 0 0 0 0 0 0 0 0 0 0 0 0 0 0 0 0 0 0 0 0 0 0 0 0 0 0 0 0 0 0 0 0 0 0 0 0 0 0 0 0 0 0
0 0 0 0 0 0 0 0 0 0 0 0 0 0 0 0 0 0 0 0 0 0 0 0 0 0 0 0 0 0 0 0 0 0 0 0 0 0 0 0 0 0 0 0 0
0 0 0 0 0 0 0 0 0 0 0 0 0 0 0 0 0 0 0 0 0 0 0 0 0 0 0 0 0 0 0 0 0 0 0 0 0 0 0 0 0 0 0 0 0
0 0 0 0 0 0 0 0 0 0 0 0 0 0 0 0 0 0 0 0 0 0 0 0 0 0 0 0 0 0 0 0 0 0 0 0 0 0 0 0 0 0 0 0 0
0 0 0 0 0 0 0 0 0 0 0 0 0 0 0 0 0 0 0 0 0 0 0 0 0 0 0 0 0 0 0 0 0 0 0 0 0 0 0 0 0 0 0 0 0
0 0 0 0 0 0 0 0 0 0 0 0 0 0 0 0 0 0 0 0 0 0 0 0 0 0 0 0 0 0 0 0 0 0 0 0 0 0 0 0 0 0 0 0 0
0 0 0 0 0 0 0 0 0 0 0 0 0 0 0 0 0 0 0 0 0 0 0 0 0 0 0 0 0 0 0 0 0 0 0 0 0 0 0 0 0 0 0 0 0
0 0 0 0 0 0 0 0 0 0 0 0 0 0 0 0 0 0 0 0 0 0 0 0 0 0 0 0 0 0 0 0 0 0 0 0 0 0 0 0 0 0 0 0 0
0 0 0 0 0 0 0 0 0 0 0 0 0 0 0 0 0 0 0 0 0 0 0 0 0 0 0 0 0 0 0 0 0 0 0 0 0 0 0 0 0 0 0 0 0
0 0 0 0 0 0 0 0 0 0 0 0 0 0 0 0 0 0 0 0 0 0 0 0 0 0 0 0 0 0 0 0 0 0 0 0 0 0 0 0 0 0 0 0 0
0 0 0 0 0 0 0 0 0 0 0 0 0 0 0 0 0 0 0 0 0 0 0 0 0 0 0 0 0 0 0 0 0 0 0 0 0 0 0 0 0 0 0 0 0
0 0 0 0 0 0 0 0 0 0 0 0 0 0 0 0 0 0 0 0 0 0 0 0 0 0 0 0 0 0 0 0 0 0 0 0 0 0 0 0 0 0 0 0 0
0 0 0 0 0 0 0 0 0 0 0 0 0 0 0 0 0 0 0 0 0 0 0 0 0 0 0 0 0 0 0 0 0 0 0 0 0 0 0 0 0 0 0 0 0
0 0 0 0 0 0 0 0 0 0 0 0 0 0 0 0 0 0 0 0 0 0 0 0 0 0 0 0 0 0 0 0 0 0 0 0 0 0 0 0 0 0 0 0 0
0 0 0 0 0 0 0 0 0 0 0 0 0 0 0 0 0 0 0 0 0 0 0 0 0 0 0 0 0 0 0 0 0 0 0 0 0 0 0 0 0 0 0 0 0
0 0 0 0 0 0 0 0 0 0 0 0 0 0 0 0 0 0 0 0 0 0 0 0 0 0 0 0 0 0 0 0 0 0 0 0 0 0 0 0 0 0 0 0 0
0 0 0 0 0 0 0 0 0 0 0 0 0 0 0 0 0 0 0 0 0 0 0 0 0 0 0 0 0 0 0 0 0 0 0 0 0 0 0 0 0 0 0 0 0
0 0 0 0 0 0 0 0 0 0 0 0 0 0 0 0 0 0 0 0 0 0 0 0 0 0 0 0 0 0 0 0 0 0 0 0 0 0 0 0 0 0 0 0 0
0 0 0 0 0 0 0 0 0 0 0 0 0 0 0 0 0 0 0 0 0 0 0 0 0 0 0 0 0 0 0 0 0 0 0 0 0 0 0 0 0 0 0 0 0
0 0 0 0 0 0 0 0 0 0 0 0 0 0 0 0 0 0 0 0 0 0 0 0 0 0 0 0 0 0 0 0 0 0 0 0 0 0 0 0 0 0 0 0 0
0 0 -3 -6 0 0 0 0 0 0 0 0 0 0 0 0 0 0 0 0 0 0 0 0 0 0 0 0 0 0 0 0 0 0 0 0 0 0 0 0 0 0 0 0 0
0 0 0 -1 -3 -1 0 0 0 0 0 0 0 0 0 0 0 0 0 0 0 0 0 0 0 0 0 0 0 0 0 0 0 0 0 0 0 0 0 0 0 0 0 0 0
0 0 0 0 0 0 0 0 0 0 0 0 0 0 0 0 0 0 0 0 0 0 0 0 0 0 0 0 0 0 0 0 0 0 0 0 0 0 0 0 0 0 0 0 0
0 0 0 0 0 0 0 0 0 0 0 0 0 0 0 0 0 0 0 0 0 0 0 0 0 0 0 0 0 0 0 0 0 0 0 0 0 0 0 0 0 0 0 0 0
Wind_Speed
24 24 24 23 23 23 23 23 23 22 22 22 22 22 21 21 19 16 15 17 19 21 19 16 11 8 12 14 14 15 16 12 11 12 14 15 15 17 18 17 18 16 16 20 21
25 25 25 24 24 24 24 24 24 23 23 23 23 23 22 21 18 15 16 18 19 19 16 14 12 11 16 16 17 18 16 12 11 12 13 14 14 16 17 18 20 22 22 20 18
26 26 26 26 25 25 25 25 25 24 24 24 24 24 24 20 19 18 18 18 18 17 16 13 10 12 15 17 19 18 16 11 11 13 15 14 15 16 17 17 16 17 18 17 17
26 26 27 27 27 27 27 26 26 26 25 25 25 25 24 19 23 17 18 18 18 17 16 14 13 15 16 17 17 14 14 11 11 13 13 13 15 16 18 16 16 18 17 17 16
27 27 27 28 28 28 28 28 27 27 26 26 26 24 19 21 22 18 19 18 17 17 17 14 12 12 14 13 13 12 11 12 12 13 13 14 14 15 17 17 17 17 16 16 16
28 28 28 28 29 29 29 29 29 28 28 27 26 23 20 24 18 19 19 18 16 14 14 14 11 8 10 13 15 10 12 12 12 12 13 12 13 14 13 14 14 14 14 14 14
28 29 29 29 29 30 30 30 30 29 29 28 24 21 22 26 19 21 20 18 16 15 12 11 8 12 7 10 12 12 12 12 11 11 12 12 12 13 10 11 11 11 11 12 13
27 29 29 29 30 30 31 31 31 31 29 25 21 20 24 21 22 20 17 16 15 14 10 7 8 8 10 10 9 10 12 13 7 9 9 11 16 10 9 8 7 8 8 9 11
25 28 29 29 29 30 31 32 33 29 25 21 19 20 24 22 20 19 17 16 15 13 9 10 11 9 5 4 10 14 13 13 8 4 9 7 17 9 6 5 4 5 6 7 9
24 26 28 28 29 29 31 33 27 22 20 18 19 22 22 20 21 20 17 16 14 11 11 14 12 11 6 10 17 14 15 13 11 4 7 9 12 8 3 2 2 3 3 4 5
21 22 27 27 27 27 27 20 21 22 21 23 20 23 21 21 20 20 18 16 15 15 16 15 15 11 6 12 17 12 13 14 15 12 11 9 12 7 3 2 3 2 1 2 4
17 17 26 26 26 26 19 17 17 22 25 25 28 29 27 21 22 21 18 18 18 19 15 16 18 11 8 13 14 12 15 18 19 15 10 16 10 14 5 6 5 4 3 1 3
14 13 24 25 24 19 17 16 20 15 24 26 25 26 23 18 22 22 18 18 19 19 19 20 19 9 9 12 15 17 19 18 21 17 16 19 20 15 11 7 6 5 4 2 2
13 11 22 24 21 20 18 19 19 15 23 25 24 24 21 18 23 21 18 18 19 19 17 20 16 12 12 14 15 21 18 17 15 17 24 15 29 22 14 10 7 5 4 4 2
12 12 20 19 21 20 19 22 16 16 27 20 21 19 19 20 17 19 17 18 20 18 18 19 15 14 15 17 15 20 14 15 16 20 22 21 27 24 20 16 9 7 5 4 3
12 13 14 19 19 20 22 20 16 23 29 21 19 20 20 22 20 17 18 16 16 18 19 19 17 17 17 15 16 8 15 19 20 21 28 23 20 26 22 21 21 10 6 4 2
14 12 11 18 18 21 21 16 24 32 22 23 22 19 21 23 23 21 20 21 22 22 22 20 20 18 13 16 14 17 17 25 26 24 27 21 21 25 22 21 22 15 9 4 1
13 14 17 23 23 22 18 20 33 28 28 22 21 21 22 20 24 23 23 25 23 22 22 23 26 19 17 20 19 17 19 22 29 27 27 21 26 24 21 24 21 18 12 7 4
10 15 18 19 18 17 15 27 30 26 23 26 24 24 25 23 22 24 27 27 24 21 25 22 25 19 18 17 17 20 21 19 24 25 29 25 24 23 21 22 21 18 15 10 6
11 13 17 20 13 15 14 20 22 20 22 22 27 24 27 26 25 22 24 25 26 21 21 22 25 20 19 17 19 19 12 21 21 29 31 26 28 25 24 22 20 20 16 11 7
11 13 17 16 13 16 16 20 23 21 20 21 24 27 25 26 26 27 26 25 22 21 21 21 24 24 20 22 21 19 21 20 20 22 29 33 28 21 23 22 22 20 16 10 7
12 17 17 11 15 20 19 18 20 23 20 20 20 20 26 27 28 28 29 26 20 18 22 22 23 28 27 23 20 20 21 19 25 26 23 26 31 19 21 25 24 20 15 10 8
14 15 15 14 20 20 21 23 22 21 22 21 20 21 22 25 28 26 28 25 23 20 20 20 26 30 28 26 23 24 22 21 20 21 24 27 27 20 24 27 24 20 15 10 8
16 20 17 16 17 19 20 22 23 24 25 23 26 22 22 23 24 27 28 24 26 24 23 18 25 29 33 28 22 24 23 19 20 24 24 25 27 26 28 28 24 19 14 10 9
18 20 17 19 22 21 20 23 24 25 21 21 23 22 23 27 29 23 28 29 26 24 23 22 29 27 28 26 25 26 23 19 21 22 25 26 25 28 29 27 21 17 14 11 9
18 18 17 17 16 18 22 22 20 19 22 24 27 27 31 33 29 37 30 27 29 25 25 24 28 26 29 26 26 27 25 21 22 22 24 26 30 23 24 22 19 16 13 11 8
17 16 17 19 16 16 21 20 21 23 22 17 19 20 23 26 24 23 23 26 28 28 27 27 26 26 32 26 27 33 26 22 21 19 20 25 24 20 23 21 18 15 13 11 9
Wind_Direction
295 295 292 293 289 291 292 290 288 286 285 285 285 285 283 279 270 260 258 262 268 276 284 281 299 311 301 275 289 292 317 5 28 75 61 86 53 51 49 54 39 48 73 85 91
291 292 293 291 289 288 289 289 286 284 285 286 284 283 281 277 261 261 263 270 276 280 284 282 276 297 275 275 284 296 321 2 46 61 73 75 57 57 44 47 48 56 73 82 78
287 288 291 288 289 285 287 287 285 284 284 285 284 282 279 269 254 255 273 278 282 286 289 292 305 294 292 292 289 304 326 15 14 48 79 64 55 52 56 43 69 80 84 80 71
286 287 287 288 288 285 284 285 284 283 283 283 283 282 276 260 242 261 278 283 286 287 291 288 290 291 289 293 304 333 333 21 52 61 58 65 60 56 31 45 76 84 81 78 68
284 285 285 286 286 286 283 283 282 281 281 281 281 280 268 254 252 268 278 289 289 289 287 288 292 305 298 317 341 3 16 15 49 58 54 64 54 44 36 66 78 79 76 73 64
283 282 283 285 286 285 282 280 279 278 278 278 278 275 263 249 265 272 276 285 295 306 303 289 302 353 334 314 321 12 42 43 39 46 54 62 46 37 50 77 76 75 69 65 58
285 279 280 283 284 284 283 279 276 275 275 275 273 272 260 249 266 269 274 282 289 290 303 310 335 312 348 355 45 51 33 25 23 41 38 56 27 23 76 85 71 65 61 58 55
290 279 278 280 283 284 283 278 274 272 272 273 274 270 256 262 265 269 275 280 288 295 313 356 5 347 328 71 3 0 358 348 24 34 44 20 1 24 87 85 65 63 59 54 49
299 285 277 279 282 283 282 278 272 269 272 275 271 265 256 267 259 267 275 277 282 293 300 314 315 324 360 17 330 322 328 338 356 28 16 11 356 29 83 75 51 44 55 56 45
305 298 277 277 281 283 284 278 271 273 276 279 273 262 263 260 262 265 274 280 281 287 287 287 300 296 302 303 303 318 321 329 336 347 352 347 343 21 54 48 5 14 27 53 39
314 314 280 275 280 284 289 283 270 265 270 258 262 256 265 270 266 263 273 276 278 278 275 284 284 277 260 300 314 323 325 330 333 339 330 322 334 346 359 326 304 296 320 11 24
326 330 279 274 278 282 287 278 278 272 262 263 257 257 260 271 264 263 273 268 270 269 278 283 280 285 288 305 318 322 320 320 330 333 329 330 319 336 314 271 266 261 260 292 7
331 340 279 272 276 277 278 282 291 293 266 263 261 260 262 266 264 264 269 271 270 269 272 276 290 288 284 289 301 311 314 319 322 335 334 338 329 331 329 313 302 277 252 237 293
329 346 279 272 265 271 268 286 292 294 267 262 259 263 260 266 266 268 270 272 273 269 275 281 289 290 289 291 297 304 316 322 328 329 324 339 326 342 337 324 313 294 270 260 263
323 337 282 273 264 263 272 285 288 287 257 269 261 274 263 256 272 269 276 273 271 273 275 280 282 282 289 296 301 306 326 326 327 324 326 329 325 341 350 344 326 318 288 271 255
314 318 300 269 268 270 279 282 280 261 256 269 268 262 258 258 265 277 270 281 282 277 283 282 291 290 293 303 304 328 322 324 326 323 315 328 327 337 345 352 351 346 317 296 278
298 308 304 273 267 276 279 271 255 250 270 267 269 268 261 260 261 267 267 265 267 269 271 282 284 293 297 299 306 305 308 310 311 314 317 333 332 331 343 347 348 354 352 342 38
292 289 277 253 257 276 272 257 250 263 261 280 275 270 266 267 265 266 267 266 269 275 277 273 279 284 290 293 296 298 302 304 308 313 318 330 325 335 348 347 353 357 8 17 24
299 284 271 265 274 276 266 251 256 265 276 272 275 269 268 270 273 268 267 269 271 270 274 281 281 292 295 298 298 298 298 311 308 314 313 320 328 336 348 351 357 6 6 10 25
288 284 273 266 288 277 271 264 267 275 281 281 267 277 271 271 269 272 270 277 270 271 278 281 284 294 294 299 304 300 314 307 309 307 310 318 322 328 341 346 354 355 358 6 22
283 281 282 275 281 270 268 268 267 278 287 282 277 274 281 277 273 271 277 279 278 272 275 277 282 288 293 289 289 295 295 305 312 311 310 313 321 337 338 343 344 349 354 2 14
277 273 288 277 266 269 269 276 282 275 289 290 290 288 282 284 279 275 275 281 289 281 273 276 284 280 283 293 296 294 294 296 298 305 310 316 318 339 338 339 342 347 352 2 12
268 281 292 275 264 269 275 272 280 284 281 286 288 298 293 288 279 284 282 287 288 285 283 274 278 279 285 289 291 290 290 293 299 306 304 310 319 335 336 338 343 347 353 2 12
270 266 281 276 281 276 273 279 278 283 283 285 281 296 297 294 293 282 289 291 286 282 286 282 278 275 277 287 295 291 289 287 291 297 303 306 314 324 329 334 342 348 356 2 10
272 269 274 273 269 276 277 283 278 282 288 289 286 284 290 289 290 287 296 292 288 284 283 281 279 281 284 288 289 291 292 287 287 295 300 311 315 324 331 335 343 351 359 3 9
267 272 277 282 286 272 277 279 288 293 285 282 284 283 284 281 287 284 295 298 287 283 277 282 280 284 283 289 289 288 290 288 292 297 301 308 313 329 339 348 351 355 1 4 11
274 279 276 278 283 285 278 280 284 283 293 301 305 301 295 291 297 297 294 294 290 281 275 277 276 282 283 288 290 285 284 284 293 302 308 309 321 335 336 343 350 357 1 4 5